Weather History for Rotterdam, Netherlands

Change the Weather History Date:

Monday, October 8, 2012

  Actual Average Record
Temperature  
Mean Temperature 47 °F -  
Max Temperature 56 °F 54 °F 66 °F (2005)
Min Temperature 38 °F 43 °F 38 °F (2012)
Degree Days  
Heating Degree Days 18    
Moisture  
Dew Point 44 °F    
Average Humidity 84    
Maximum Humidity 100    
Minimum Humidity 54    
Precipitation  
Precipitation 0.00 in - - ()
Sea Level Pressure  
Sea Level Pressure 30.06 in    
Wind  
Wind Speed 4 mph ()    
Max Wind Speed 10 mph    
Max Gust Speed -    
Visibility 6.2 miles    
Events      
Averages and records for this station are not official NWS values.
T = Trace of Precipitation, MM = Missing Value Source: Averaged Metar Reports

Daily Weather History Graph

Daily Weather History Graph

Search for Another Location

Airport:

Trip Planner

Search our weather history database for the weather conditions in past years. The results will help you decide how hot, cold, wet, or windy it might be!

Date:

Astronomy

Oct. 08, 2012 Rise Set
Actual Time 7:55 AM CEST 7:03 PM CEST
Civil Twilight 7:21 AM CEST 7:36 PM CEST
Nautical Twilight 6:42 AM CEST 8:15 PM CEST
Astronomical Twilight 6:03 AM CEST 8:55 PM CEST
Moon No Moon Rise 3:27 PM CEST (10/8)
Length of Visible Light 12h 15m
Length of Day
11h 07m
Waning Gibbous, 49% of the Moon is Illuminated
Oct 8
Waning Gibbous
Oct 15
New
Oct 22
First Quarter
Oct 29
Full
Nov 7
Last Quarter

Hourly Weather History & Observations

Time (CEST) Temp. Windchill Dew Point Humidity Pressure Visibility Wind Dir Wind Speed Gust Speed Precip Events Conditions
12:25 AM 42.8 °F - 42.8 °F 100% 30.21 in 5.6 mi ESE 1.2 mph - N/A   Unknown
12:55 AM 42.8 °F - 42.8 °F 100% 30.21 in 3.7 mi SSE 2.3 mph - N/A   Scattered Clouds
1:25 AM 41.0 °F - 41.0 °F 100% 30.21 in 6.2 mi SE 2.3 mph - N/A   Unknown
1:55 AM 42.8 °F - 42.8 °F 100% 30.21 in 3.7 mi South 2.3 mph - N/A   Unknown
2:00 AM 43 °F - 43 °F 99% 30.23 in 1 mi South 2.2 mph - -   Mist
2:25 AM 42.8 °F - 42.8 °F 100% 30.21 in 0.9 mi SE 2.3 mph - N/A   Mist
2:55 AM 42.8 °F - 42.8 °F 100% 30.21 in - SE 2.3 mph - N/A   Mist
3:25 AM 42.8 °F 41.1 °F 42.8 °F 100% 30.21 in 1.4 mi South 3.5 mph - N/A   Mist
3:55 AM 41.0 °F 38.0 °F 41.0 °F 100% 30.18 in 5.0 mi South 4.6 mph - N/A   Unknown
4:25 AM 42.8 °F 40.1 °F 42.8 °F 100% 30.18 in 6.2 mi SSE 4.6 mph - N/A   Unknown
4:55 AM 42.8 °F 40.1 °F 42.8 °F 100% 30.18 in 6.2 mi SSE 4.6 mph - N/A   Unknown
5:00 AM 41 °F - 41 °F 98% 30.18 in 12 mi SSE 4.5 mph - -   Partly Cloudy
5:25 AM 42.8 °F 40.1 °F 42.8 °F 100% 30.18 in 6.2 mi South 4.6 mph - N/A   Unknown
5:55 AM 42.8 °F 40.1 °F 42.8 °F 100% 30.15 in 6.2 mi SSE 4.6 mph - N/A   Unknown
6:25 AM 41.0 °F 38.0 °F 41.0 °F 100% 30.15 in 2.2 mi SSE 4.6 mph - N/A   Mist
6:55 AM 41.0 °F - 41.0 °F 100% 30.15 in 6.2 mi Variable 2.3 mph - N/A   Unknown
7:25 AM 41.0 °F - 41.0 °F 100% 30.15 in 6.2 mi Variable 2.3 mph - N/A   Unknown
7:55 AM 41.0 °F 39.0 °F 41.0 °F 100% 30.15 in 6.2 mi Variable 3.5 mph - N/A   Unknown
8:00 AM 41 °F - 41 °F 99% 30.15 in 6 mi SSE 4.5 mph - -   Partly Cloudy
8:25 AM 41.0 °F 38.0 °F 41.0 °F 100% 30.12 in 6.2 mi SE 4.6 mph - N/A   Unknown
8:55 AM 46.4 °F 44.3 °F 42.8 °F 87% 30.12 in 6.2 mi SSE 4.6 mph - N/A   Unknown
9:25 AM 48.2 °F - 44.6 °F 87% 30.12 in 6.2 mi Variable 4.6 mph - N/A   Unknown
9:55 AM 51.8 °F - 46.4 °F 82% 30.12 in 6.2 mi SE 8.1 mph - N/A   Unknown
10:25 AM 51.8 °F - 46.4 °F 82% 30.09 in 6.2 mi SSE 6.9 mph - N/A   Unknown
10:55 AM 51.8 °F - 44.6 °F 76% 30.09 in 6.2 mi SSE 5.8 mph - N/A   Unknown
11:00 AM 52 °F - 44 °F 68% 30.11 in 14 mi SSE 8.9 mph - -   Overcast
11:25 AM 53.6 °F - 44.6 °F 72% 30.09 in 6.2 mi SSE 8.1 mph - N/A   Unknown
11:55 AM 53.6 °F - 44.6 °F 72% 30.09 in 6.2 mi SE 8.1 mph - N/A   Unknown
12:25 PM 55.4 °F - 42.8 °F 63% 30.09 in 6.2 mi SSE 9.2 mph - N/A   Unknown
12:55 PM 55.4 °F - 42.8 °F 63% 30.09 in 6.2 mi SSE 9.2 mph - N/A   Unknown
1:25 PM 55.4 °F - 44.6 °F 67% 30.06 in 6.2 mi SSE 6.9 mph - N/A   Unknown
1:55 PM 55.4 °F - 44.6 °F 67% 30.04 in 6.2 mi SSE 10.4 mph - N/A   Unknown
2:00 PM 56 °F - 44 °F 54% 30.04 in 22 mi SE 8.9 mph - -   Partly Cloudy
2:25 PM 55.4 °F - 44.6 °F 67% 30.04 in 6.2 mi SSE 6.9 mph - N/A   Unknown
2:55 PM 55.4 °F - 44.6 °F 67% 30.01 in 6.2 mi SE 9.2 mph - N/A   Unknown
3:25 PM 55.4 °F - 44.6 °F 67% 30.01 in 6.2 mi SE 8.1 mph - N/A   Unknown
3:55 PM 57.2 °F - 44.6 °F 63% 30.01 in 6.2 mi ESE 4.6 mph - N/A   Unknown
4:25 PM 57.2 °F - 44.6 °F 63% 29.98 in 6.2 mi SE 6.9 mph - N/A   Unknown
4:55 PM 55.4 °F - 44.6 °F 67% 29.95 in 6.2 mi SE 8.1 mph - N/A   Unknown
5:00 PM 56 °F - 45 °F 56% 29.96 in 25 mi ESE 6.7 mph - -   Overcast
5:25 PM 55.4 °F - 44.6 °F 67% 29.95 in 6.2 mi ESE 8.1 mph - N/A   Unknown
5:55 PM 55.4 °F - 46.4 °F 72% 29.92 in 6.2 mi East 6.9 mph - N/A   Unknown
6:25 PM 53.6 °F - 46.4 °F 77% 29.92 in 6.2 mi East 5.8 mph - N/A   Unknown
6:55 PM 53.6 °F - 46.4 °F 77% 29.92 in 6.2 mi East 5.8 mph - N/A   Unknown
7:25 PM 53.6 °F - 46.4 °F 77% 29.92 in 6.2 mi East 5.8 mph - N/A   Unknown
7:55 PM 51.8 °F - 46.4 °F 82% 29.92 in 6.2 mi Variable 2.3 mph - N/A   Unknown
8:00 PM 52 °F - 47 °F 77% 29.92 in 15 mi East 2.2 mph - -   Partly Cloudy
8:25 PM 51.8 °F - 48.2 °F 88% 29.92 in 6.2 mi ENE 4.6 mph - N/A   Unknown
8:55 PM 51.8 °F - 46.4 °F 82% 29.89 in 6.2 mi Variable 2.3 mph - N/A   Unknown
9:25 PM 51.8 °F - 48.2 °F 88% 29.89 in 6.2 mi Variable 2.3 mph - N/A   Partly Cloudy
9:55 PM 50.0 °F - 48.2 °F 94% 29.89 in 6.2 mi NE 4.6 mph - N/A   Unknown
10:25 PM 50.0 °F - 46.4 °F 87% 29.89 in 6.2 mi NNE 3.5 mph - N/A   Unknown
10:55 PM 50.0 °F - 46.4 °F 87% 29.89 in 6.2 mi NE 3.5 mph - N/A   Unknown
11:00 PM 49 °F - 47 °F 88% 29.90 in 11 mi NNE 4.5 mph - -   Partly Cloudy
11:25 PM 48.2 °F - 46.4 °F 93% 29.89 in 6.2 mi North 4.6 mph - N/A   Unknown
11:55 PM 46.4 °F 45.2 °F 44.6 °F 93% 29.89 in 6.2 mi North 3.5 mph - N/A   Unknown